Left ArrowRight Arrow

36.19886, -115.1175

Hourly Observations for June 17, 2024

Temp ( °F °C ) Dew Point ( °F °C ) Humidity (%) Winds ( mph kmh ) Pressure ( in mb ) Visibility ( mi km ) Precip ( " mm )
12:53 am 00:53 Clear with Smoke 88 31.1 29 -1.7 12 12 S 14 22 29.48 998 10 16 0.00 0.00
1:53 am 01:53 Clear with Smoke 85 29.4 29 -1.7 13 13 S 14 22 29.46 998 10 16 0.00 0.00
2:53 am 02:53 Clear with Smoke 83 28.3 29 -1.7 14 14 S 15 24 29.46 998 10 16 0.00 0.00
3:53 am 03:53 Clear with Smoke 82 27.8 30 -1.1 15 15 S 8 13 29.47 998 10 16 0.00 0.00
4:53 am 04:53 Clear with Smoke 80 26.7 31 -0.6 17 17 Calm 29.47 998 10 16 0.00 0.00
5:53 am 05:53 Sunny with Smoke 79 26.1 32 0 18 18 E 3 6 29.50 999 10 16 0.00 0.00
6:53 am 06:53 Sunny with Smoke 80 26.7 33 0.6 18 18 NNE 6 9 29.51 999 10 16 0.00 0.00
7:53 am 07:53 Sunny with Smoke 82 27.8 34 1.1 18 18 Calm 29.51 999 10 16 0.00 0.00
8:53 am 08:53 Sunny 86 30 33 0.6 15 15 VRB 3 6 29.51 999 10 16 0.00 0.00
9:53 am 09:53 Sunny 88 31.1 32 0 14 14 NW 5 7 29.50 999 10 16 0.00 0.00
10:53 am 10:53 Sunny 91 32.8 32 0 12 12 SW 8 13 29.50 999 10 16 0.00 0.00
11:53 am 11:53 Sunny 93 33.9 33 0.6 12 12 Calm 29.49 999 10 16 0.00 0.00
12:53 pm 12:53 Sunny 96 35.6 32 0 11 11 SSE 12 19 29.47 998 10 16 0.00 0.00
1:53 pm 13:53 Sunny 99 37.2 33 0.6 10 10 S 13 20 29.44 997 10 16 0.00 0.00
2:53 pm 14:53 Sunny 99 37.2 32 0 10 10 E 12 19 29.43 997 10 16 0.00 0.00
3:53 pm 15:53 Sunny 100 37.8 33 0.6 10 10 undefined N/A 29.42 996 10 16 0.00 0.00
4:53 pm 16:53 Sunny 101 38.3 32 0 9 9 SW 14 22 29.41 996 10 16 0.00 0.00
5:53 pm 17:53 Sunny 102 38.9 29 -1.7 8 8 NNW 14 22 29.41 996 10 16 0.00 0.00
6:53 pm 18:53 Sunny 100 37.8 27 -2.8 8 8 N 15 24 29.42 996 10 16 0.00 0.00
7:53 pm 19:53 Sunny 96 35.6 27 -2.8 9 9 WNW 16 26 29.45 997 10 16 0.00 0.00
8:53 pm 20:53 Clear 93 33.9 21 -6.1 7 7 NW 25 41 29.47 998 10 16 0.00 0.00
9:53 pm 21:53 Clear 90 32.2 13 -10.6 6 6 NW 22 35 29.54 1000 10 16 0.00 0.00
10:53 pm 22:53 Clear 85 29.4 17 -8.3 8 8 NNW 23 37 29.61 1003 10 16 0.00 0.00
11:53 pm 23:53 Clear 83 28.3 12 -11.1 7 7 NW 24 39 29.60 1003 10 16 0.00 0.00

Powered by Vaisala Xweather